Tracking 25734 objects as of 27-May-2022
HD Live streaming from Space Station
objects crossing your sky now

KL-BETA A

Track KL-BETA A now!
10-day predictions


NORAD ID: 49059
Int'l Code: 2021-070A
Perigee: 907.1 km
Apogee: 920.2 km
Inclination: 89.0 °
Period: 103.1 minutes
Semi major axis: 7284 km
RCS: Unknown
Launch date: August 4, 2021
Source: People's Republic of China (PRC)
Launch site: Taiyaun Space Center, China (TSC)
aabbcc
Your satellite tracking list
Your tracking list is empty




NASA's NSSDC Master Catalog

Two Line Element Set (TLE):
1 49059U 21070A   22146.87760337  .00000135  00000-0  88107-4 0  9990
2 49059  89.0041  21.0139 0009000  60.0791 300.1275 13.96336192 41241
Source of the keplerian elements: AFSPC